Year,Month,Day,Hour,Minute,Value (Times are PST for temperature in C)
2015,06,22,00,00,14.60
2015,06,22,00,01,14.60
2015,06,22,00,02,14.70
2015,06,22,00,03,14.70
2015,06,22,00,04,14.70
2015,06,22,00,05,14.70
2015,06,22,00,06,14.70
2015,06,22,00,07,14.70
2015,06,22,00,08,14.70
2015,06,22,00,09,14.70
2015,06,22,00,10,14.70
2015,06,22,00,11,14.70
2015,06,22,00,12,14.70
2015,06,22,00,13,14.70
2015,06,22,00,14,14.70
2015,06,22,00,15,14.70
2015,06,22,00,16,14.70
2015,06,22,00,17,14.70
2015,06,22,00,18,14.70
2015,06,22,00,19,14.70
2015,06,22,00,20,14.70
2015,06,22,00,21,14.70
2015,06,22,00,22,14.60
2015,06,22,00,23,14.60
2015,06,22,00,24,14.60
2015,06,22,00,25,14.60
2015,06,22,00,26,14.60
2015,06,22,00,27,14.60
2015,06,22,00,28,14.60
2015,06,22,00,29,14.60
2015,06,22,00,30,14.60
2015,06,22,00,31,14.50
2015,06,22,00,32,14.50
2015,06,22,00,33,14.50
2015,06,22,00,34,14.40
2015,06,22,00,35,14.40
2015,06,22,00,36,14.40
2015,06,22,00,37,14.40
2015,06,22,00,38,14.40
2015,06,22,00,39,14.40
2015,06,22,00,40,14.30
2015,06,22,00,41,14.30
2015,06,22,00,42,14.30
2015,06,22,00,43,14.30
2015,06,22,00,44,14.30
2015,06,22,00,45,14.30
2015,06,22,00,46,14.30
2015,06,22,00,47,14.20
2015,06,22,00,48,14.20
2015,06,22,00,49,14.20
2015,06,22,00,50,14.20
2015,06,22,00,51,14.20
2015,06,22,00,52,14.20
2015,06,22,00,53,14.20
2015,06,22,00,54,14.20
2015,06,22,00,55,14.20
2015,06,22,00,56,14.20
2015,06,22,00,57,14.20
2015,06,22,00,58,14.20
2015,06,22,00,59,14.20
2015,06,22,01,00,14.20
2015,06,22,01,01,14.20
2015,06,22,01,02,14.20
2015,06,22,01,03,14.20
2015,06,22,01,04,14.20
2015,06,22,01,05,14.20
2015,06,22,01,06,14.20
2015,06,22,01,07,14.20
2015,06,22,01,08,14.20
2015,06,22,01,09,14.20
2015,06,22,01,10,14.20
2015,06,22,01,11,14.20
2015,06,22,01,12,14.20
2015,06,22,01,13,14.10
2015,06,22,01,14,14.10
2015,06,22,01,15,14.10
2015,06,22,01,16,14.20
2015,06,22,01,17,14.20
2015,06,22,01,18,14.20
2015,06,22,01,19,14.20
2015,06,22,01,20,14.20
2015,06,22,01,21,14.20
2015,06,22,01,22,14.20
2015,06,22,01,23,14.20
2015,06,22,01,24,14.20
2015,06,22,01,25,14.20
2015,06,22,01,26,14.20
2015,06,22,01,27,14.20
2015,06,22,01,28,14.20
2015,06,22,01,29,14.20
2015,06,22,01,30,14.20
2015,06,22,01,31,14.20
2015,06,22,01,32,14.20
2015,06,22,01,33,14.20
2015,06,22,01,34,14.20
2015,06,22,01,35,14.20
2015,06,22,01,36,14.20
2015,06,22,01,37,14.20
2015,06,22,01,38,14.20
2015,06,22,01,39,14.20
2015,06,22,01,40,14.20
2015,06,22,01,41,14.20
2015,06,22,01,42,14.20
2015,06,22,01,43,14.20
2015,06,22,01,44,14.20
2015,06,22,01,45,14.20
2015,06,22,01,46,14.20
2015,06,22,01,47,14.20
2015,06,22,01,48,14.20
2015,06,22,01,49,14.20
2015,06,22,01,50,14.20
2015,06,22,01,51,14.20
2015,06,22,01,52,14.20
2015,06,22,01,53,14.20
2015,06,22,01,54,14.20
2015,06,22,01,55,14.20
2015,06,22,01,56,14.20
2015,06,22,01,57,14.20
2015,06,22,01,58,14.20
2015,06,22,01,59,14.20
2015,06,22,02,00,14.20
2015,06,22,02,01,14.20
2015,06,22,02,02,14.20
2015,06,22,02,03,14.20
2015,06,22,02,04,14.20
2015,06,22,02,05,14.20
2015,06,22,02,06,14.20
2015,06,22,02,07,14.20
2015,06,22,02,08,14.20
2015,06,22,02,09,14.20
2015,06,22,02,10,14.20
2015,06,22,02,11,14.10
2015,06,22,02,12,14.10
2015,06,22,02,13,14.10
2015,06,22,02,14,14.10
2015,06,22,02,15,14.20
2015,06,22,02,16,14.20
2015,06,22,02,17,14.20
2015,06,22,02,18,14.20
2015,06,22,02,19,14.20
2015,06,22,02,20,14.20
2015,06,22,02,21,14.20
2015,06,22,02,22,14.20
2015,06,22,02,23,14.20
2015,06,22,02,24,14.20
2015,06,22,02,25,14.20
2015,06,22,02,26,14.20
2015,06,22,02,27,14.20
2015,06,22,02,28,14.20
2015,06,22,02,29,14.20
2015,06,22,02,30,14.10
2015,06,22,02,31,14.10
2015,06,22,02,32,14.10
2015,06,22,02,33,14.10
2015,06,22,02,34,14.00
2015,06,22,02,35,14.00
2015,06,22,02,36,14.00
2015,06,22,02,37,14.00
2015,06,22,02,38,14.00
2015,06,22,02,39,14.00
2015,06,22,02,40,13.90
2015,06,22,02,41,13.90
2015,06,22,02,42,13.90
2015,06,22,02,43,13.90
2015,06,22,02,44,13.90
2015,06,22,02,45,13.90
2015,06,22,02,46,13.90
2015,06,22,02,47,13.90
2015,06,22,02,48,13.90
2015,06,22,02,49,13.90
2015,06,22,02,50,13.90
2015,06,22,02,51,13.90
2015,06,22,02,52,13.90
2015,06,22,02,53,13.90
2015,06,22,02,54,13.90
2015,06,22,02,55,13.90
2015,06,22,02,56,13.80
2015,06,22,02,57,13.80
2015,06,22,02,58,13.80
2015,06,22,02,59,13.80
2015,06,22,03,00,13.80
2015,06,22,03,01,13.80
2015,06,22,03,02,13.70
2015,06,22,03,03,13.70
2015,06,22,03,04,13.70
2015,06,22,03,05,13.70
2015,06,22,03,06,13.70
2015,06,22,03,07,13.80
2015,06,22,03,08,13.80
2015,06,22,03,09,13.80
2015,06,22,03,10,13.80
2015,06,22,03,11,13.80
2015,06,22,03,12,13.80
2015,06,22,03,13,13.80
2015,06,22,03,14,13.80
2015,06,22,03,15,13.80
2015,06,22,03,16,13.70
2015,06,22,03,17,13.70
2015,06,22,03,18,13.70
2015,06,22,03,19,13.70
2015,06,22,03,20,13.70
2015,06,22,03,21,13.70
2015,06,22,03,22,13.70
2015,06,22,03,23,13.70
2015,06,22,03,24,13.70
2015,06,22,03,25,13.70
2015,06,22,03,26,13.60
2015,06,22,03,27,13.60
2015,06,22,03,28,13.60
2015,06,22,03,29,13.60
2015,06,22,03,30,13.60
2015,06,22,03,31,13.50
2015,06,22,03,32,13.50
2015,06,22,03,33,13.50
2015,06,22,03,34,13.50
2015,06,22,03,35,13.50
2015,06,22,03,36,13.50
2015,06,22,03,37,13.40
2015,06,22,03,38,13.40
2015,06,22,03,39,13.40
2015,06,22,03,40,13.30
2015,06,22,03,41,13.30
2015,06,22,03,42,13.30
2015,06,22,03,43,13.30
2015,06,22,03,44,13.30
2015,06,22,03,45,13.20
2015,06,22,03,46,13.20
2015,06,22,03,47,13.20
2015,06,22,03,48,13.10
2015,06,22,03,49,13.10
2015,06,22,03,50,13.10
2015,06,22,03,51,13.00
2015,06,22,03,52,13.00
2015,06,22,03,53,13.00
2015,06,22,03,54,13.00
2015,06,22,03,55,12.90
2015,06,22,03,56,12.90
2015,06,22,03,57,12.80
2015,06,22,03,58,12.80
2015,06,22,03,59,12.80
2015,06,22,04,00,12.80
2015,06,22,04,01,12.70
2015,06,22,04,02,12.70
2015,06,22,04,03,12.60
2015,06,22,04,04,12.60
2015,06,22,04,05,12.50
2015,06,22,04,06,12.50
2015,06,22,04,07,12.40
2015,06,22,04,08,12.40
2015,06,22,04,09,12.30
2015,06,22,04,10,12.30
2015,06,22,04,11,12.30
2015,06,22,04,12,12.30
2015,06,22,04,13,12.30
2015,06,22,04,14,12.20
2015,06,22,04,15,12.20
2015,06,22,04,16,12.20
2015,06,22,04,17,12.10
2015,06,22,04,18,12.10
2015,06,22,04,19,12.00
2015,06,22,04,20,12.00
2015,06,22,04,21,11.90
2015,06,22,04,22,11.90
2015,06,22,04,23,11.80
2015,06,22,04,24,11.80
2015,06,22,04,25,11.80
2015,06,22,04,26,11.80
2015,06,22,04,27,11.70
2015,06,22,04,28,11.60
2015,06,22,04,29,11.60
2015,06,22,04,30,11.60
2015,06,22,04,31,11.60
2015,06,22,04,32,11.60
2015,06,22,04,33,11.60
2015,06,22,04,34,11.40
2015,06,22,04,35,11.40
2015,06,22,04,36,11.40
2015,06,22,04,37,11.40
2015,06,22,04,38,11.40
2015,06,22,04,39,11.40
2015,06,22,04,40,11.40
2015,06,22,04,41,11.40
2015,06,22,04,42,11.40
2015,06,22,04,43,11.30
2015,06,22,04,44,11.30
2015,06,22,04,45,11.30
2015,06,22,04,46,11.30
2015,06,22,04,47,11.20
2015,06,22,04,48,11.20
2015,06,22,04,49,11.20
2015,06,22,04,50,11.10
2015,06,22,04,51,11.10
2015,06,22,04,52,11.10
2015,06,22,04,53,11.10
2015,06,22,04,54,11.10
2015,06,22,04,55,11.10
2015,06,22,04,56,11.00
2015,06,22,04,57,10.90
2015,06,22,04,58,10.90
2015,06,22,04,59,10.90
2015,06,22,05,00,10.90
2015,06,22,05,01,10.90
2015,06,22,05,02,10.90
2015,06,22,05,03,10.90
2015,06,22,05,04,10.90
2015,06,22,05,05,10.80
2015,06,22,05,06,10.80
2015,06,22,05,07,10.80
2015,06,22,05,08,10.80
2015,06,22,05,09,10.80
2015,06,22,05,10,10.80
2015,06,22,05,11,10.80
2015,06,22,05,12,10.70
2015,06,22,05,13,10.70
2015,06,22,05,14,10.70
2015,06,22,05,15,10.70
2015,06,22,05,16,10.70
2015,06,22,05,17,10.70
2015,06,22,05,18,10.60
2015,06,22,05,19,10.60
2015,06,22,05,20,10.60
2015,06,22,05,21,10.60
2015,06,22,05,22,10.60
2015,06,22,05,23,10.60
2015,06,22,05,24,10.60
2015,06,22,05,25,10.60
2015,06,22,05,26,10.60
2015,06,22,05,27,10.60
2015,06,22,05,28,10.60
2015,06,22,05,29,10.60
2015,06,22,05,30,10.60
2015,06,22,05,31,10.60
2015,06,22,05,32,10.60
2015,06,22,05,33,10.60
2015,06,22,05,34,10.60
2015,06,22,05,35,10.60
2015,06,22,05,36,10.60
2015,06,22,05,37,10.50
2015,06,22,05,38,10.40
2015,06,22,05,39,10.40
2015,06,22,05,40,10.40
2015,06,22,05,41,10.40
2015,06,22,05,42,10.40
2015,06,22,05,43,10.40
2015,06,22,05,44,10.40
2015,06,22,05,45,10.40
2015,06,22,05,46,10.40
2015,06,22,05,47,10.40
2015,06,22,05,48,10.40
2015,06,22,05,49,10.50
2015,06,22,05,50,10.60
2015,06,22,05,51,10.60
2015,06,22,05,52,10.60
2015,06,22,05,53,10.60
2015,06,22,05,54,10.60
2015,06,22,05,55,10.60
2015,06,22,05,56,10.60
2015,06,22,05,57,10.60
2015,06,22,05,58,10.60
2015,06,22,05,59,10.60
2015,06,22,06,00,10.60
2015,06,22,06,01,10.60
2015,06,22,06,02,10.60
2015,06,22,06,03,10.60
2015,06,22,06,04,10.60
2015,06,22,06,05,10.60
2015,06,22,06,06,10.60
2015,06,22,06,07,10.60
2015,06,22,06,08,10.50
2015,06,22,06,09,10.40
2015,06,22,06,10,10.40
2015,06,22,06,11,10.40
2015,06,22,06,12,10.40
2015,06,22,06,13,10.40
2015,06,22,06,14,10.40
2015,06,22,06,15,10.40
2015,06,22,06,16,10.40
2015,06,22,06,17,10.40
2015,06,22,06,18,10.40
2015,06,22,06,19,10.40
2015,06,22,06,20,10.40
2015,06,22,06,21,10.40
2015,06,22,06,22,10.40
2015,06,22,06,23,10.40
2015,06,22,06,24,10.40
2015,06,22,06,25,10.40
2015,06,22,06,26,10.40
2015,06,22,06,27,10.40
2015,06,22,06,28,10.40
2015,06,22,06,29,10.40
2015,06,22,06,30,10.40
2015,06,22,06,31,10.50
2015,06,22,06,32,10.60
2015,06,22,06,33,10.60
2015,06,22,06,34,10.60
2015,06,22,06,35,10.60
2015,06,22,06,36,10.60
2015,06,22,06,37,10.60
2015,06,22,06,38,10.70
2015,06,22,06,39,10.70
2015,06,22,06,40,10.80
2015,06,22,06,41,10.80
2015,06,22,06,42,10.90
2015,06,22,06,43,10.90
2015,06,22,06,44,11.00
2015,06,22,06,45,11.10
2015,06,22,06,46,11.10
2015,06,22,06,47,11.10
2015,06,22,06,48,11.10
2015,06,22,06,49,11.10
2015,06,22,06,50,11.10
2015,06,22,06,51,11.10
2015,06,22,06,52,11.10
2015,06,22,06,53,11.10
2015,06,22,06,54,11.10
2015,06,22,06,55,11.20
2015,06,22,06,56,11.20
2015,06,22,06,57,11.20
2015,06,22,06,58,11.30
2015,06,22,06,59,11.30
2015,06,22,07,00,11.40
2015,06,22,07,01,11.40
2015,06,22,07,02,11.50
2015,06,22,07,03,11.60
2015,06,22,07,04,11.70
2015,06,22,07,05,11.80
2015,06,22,07,06,11.80
2015,06,22,07,07,12.00
2015,06,22,07,08,12.00
2015,06,22,07,09,12.10
2015,06,22,07,10,12.20
2015,06,22,07,11,12.30
2015,06,22,07,12,12.30
2015,06,22,07,13,12.50
2015,06,22,07,14,12.60
2015,06,22,07,15,12.70
2015,06,22,07,16,12.80
2015,06,22,07,17,13.00
2015,06,22,07,18,13.00
2015,06,22,07,19,13.10
2015,06,22,07,20,13.20
2015,06,22,07,21,13.20
2015,06,22,07,22,13.30
2015,06,22,07,23,13.30
2015,06,22,07,24,13.30
2015,06,22,07,25,13.30
2015,06,22,07,26,13.30
2015,06,22,07,27,13.30
2015,06,22,07,28,13.40
2015,06,22,07,29,13.40
2015,06,22,07,30,13.50
2015,06,22,07,31,13.60
2015,06,22,07,32,13.80
2015,06,22,07,33,13.90
2015,06,22,07,34,14.10
2015,06,22,07,35,14.20
2015,06,22,07,36,14.40
2015,06,22,07,37,14.50
2015,06,22,07,38,14.60
2015,06,22,07,39,14.60
2015,06,22,07,40,14.70
2015,06,22,07,41,14.80
2015,06,22,07,42,15.00
2015,06,22,07,43,15.10
2015,06,22,07,44,15.30
2015,06,22,07,45,15.40
2015,06,22,07,46,15.60
2015,06,22,07,47,15.70
2015,06,22,07,48,15.80
2015,06,22,07,49,15.90
2015,06,22,07,50,15.90
2015,06,22,07,51,15.80
2015,06,22,07,52,15.80
2015,06,22,07,53,15.80
2015,06,22,07,54,15.80
2015,06,22,07,55,15.80
2015,06,22,07,56,15.80
2015,06,22,07,57,15.80
2015,06,22,07,58,15.80
2015,06,22,07,59,15.80
2015,06,22,08,00,15.80
2015,06,22,08,01,15.80
2015,06,22,08,02,15.80
2015,06,22,08,03,15.80
2015,06,22,08,04,15.80
2015,06,22,08,05,15.80
2015,06,22,08,06,15.90
2015,06,22,08,07,16.10
2015,06,22,08,08,16.20
2015,06,22,08,09,16.20
2015,06,22,08,10,16.30
2015,06,22,08,11,16.50
2015,06,22,08,12,16.70
2015,06,22,08,13,16.80
2015,06,22,08,14,16.90
2015,06,22,08,15,17.00
2015,06,22,08,16,17.00
2015,06,22,08,17,17.10
2015,06,22,08,18,17.30
2015,06,22,08,19,17.30
2015,06,22,08,20,17.40
2015,06,22,08,21,17.40
2015,06,22,08,22,17.50
2015,06,22,08,23,17.60
2015,06,22,08,24,17.60
2015,06,22,08,25,17.70
2015,06,22,08,26,17.80
2015,06,22,08,27,17.90
2015,06,22,08,28,18.00
2015,06,22,08,29,18.10
2015,06,22,08,30,18.20
2015,06,22,08,31,18.30
2015,06,22,08,32,18.40
2015,06,22,08,33,18.50
2015,06,22,08,34,18.60
2015,06,22,08,35,18.70
2015,06,22,08,36,18.80
2015,06,22,08,37,18.90
2015,06,22,08,38,18.90
2015,06,22,08,39,19.00
2015,06,22,08,40,19.10
2015,06,22,08,41,19.20
2015,06,22,08,42,19.20
2015,06,22,08,43,19.30
2015,06,22,08,44,19.30
2015,06,22,08,45,19.40
2015,06,22,08,46,19.30
2015,06,22,08,47,19.40
2015,06,22,08,48,19.40
2015,06,22,08,49,19.50
2015,06,22,08,50,19.50
2015,06,22,08,51,19.60
2015,06,22,08,52,19.70
2015,06,22,08,53,19.70
2015,06,22,08,54,19.70
2015,06,22,08,55,19.80
2015,06,22,08,56,19.80
2015,06,22,08,57,19.80
2015,06,22,08,58,19.80
2015,06,22,08,59,19.80
2015,06,22,09,00,19.80
2015,06,22,09,01,19.80
2015,06,22,09,02,19.80
2015,06,22,09,03,19.90
2015,06,22,09,04,19.90
2015,06,22,09,05,19.90
2015,06,22,09,06,19.90
2015,06,22,09,07,19.90
2015,06,22,09,08,19.90
2015,06,22,09,09,20.00
2015,06,22,09,10,20.10
2015,06,22,09,11,20.10
2015,06,22,09,12,20.10
2015,06,22,09,13,20.10
2015,06,22,09,14,20.10
2015,06,22,09,15,20.10
2015,06,22,09,16,20.20
2015,06,22,09,17,20.20
2015,06,22,09,18,20.20
2015,06,22,09,19,20.20
2015,06,22,09,20,20.20
2015,06,22,09,21,20.20
2015,06,22,09,22,20.30
2015,06,22,09,23,20.30
2015,06,22,09,24,20.40
2015,06,22,09,25,20.40
2015,06,22,09,26,20.30
2015,06,22,09,27,20.40
2015,06,22,09,28,20.30
2015,06,22,09,29,20.30
2015,06,22,09,30,20.30
2015,06,22,09,31,20.30
2015,06,22,09,32,20.40
2015,06,22,09,33,20.40
2015,06,22,09,34,20.50
2015,06,22,09,35,20.50
2015,06,22,09,36,20.40
2015,06,22,09,37,20.40
2015,06,22,09,38,20.40
2015,06,22,09,39,20.50
2015,06,22,09,40,20.50
2015,06,22,09,41,20.60
2015,06,22,09,42,20.60
2015,06,22,09,43,20.70
2015,06,22,09,44,20.80
2015,06,22,09,45,20.80
2015,06,22,09,46,20.80
2015,06,22,09,47,20.80
2015,06,22,09,48,20.80
2015,06,22,09,49,20.80
2015,06,22,09,50,20.70
2015,06,22,09,51,20.80
2015,06,22,09,52,20.80
2015,06,22,09,53,20.80
2015,06,22,09,54,20.80
2015,06,22,09,55,20.70
2015,06,22,09,56,20.80
2015,06,22,09,57,20.90
2015,06,22,09,58,20.90
2015,06,22,09,59,20.90
2015,06,22,10,00,21.00
2015,06,22,10,01,20.90
2015,06,22,10,02,20.80
2015,06,22,10,03,20.80
2015,06,22,10,04,20.90
2015,06,22,10,05,20.90
2015,06,22,10,06,21.00
2015,06,22,10,07,21.00
2015,06,22,10,08,21.10
2015,06,22,10,09,21.10
2015,06,22,10,10,21.10
2015,06,22,10,11,21.20
2015,06,22,10,12,21.30
2015,06,22,10,13,21.30
2015,06,22,10,14,21.50
2015,06,22,10,15,21.60
2015,06,22,10,16,21.60
2015,06,22,10,17,21.60
2015,06,22,10,18,21.60
2015,06,22,10,19,21.60
2015,06,22,10,20,21.60
2015,06,22,10,21,21.70
2015,06,22,10,22,21.80
2015,06,22,10,23,21.80
2015,06,22,10,24,21.80
2015,06,22,10,25,21.60
2015,06,22,10,26,21.60
2015,06,22,10,27,21.60
2015,06,22,10,28,21.50
2015,06,22,10,29,21.40
2015,06,22,10,30,21.30
2015,06,22,10,31,21.40
2015,06,22,10,32,21.50
2015,06,22,10,33,21.60
2015,06,22,10,34,21.60
2015,06,22,10,35,21.60
2015,06,22,10,36,21.60
2015,06,22,10,37,21.60
2015,06,22,10,38,21.60
2015,06,22,10,39,21.60
2015,06,22,10,40,21.60
2015,06,22,10,41,21.60
2015,06,22,10,42,21.40
2015,06,22,10,43,21.30
2015,06,22,10,44,21.20
2015,06,22,10,45,21.20
2015,06,22,10,46,21.20
2015,06,22,10,47,21.20
2015,06,22,10,48,21.30
2015,06,22,10,49,21.30
2015,06,22,10,50,21.30
2015,06,22,10,51,21.30
2015,06,22,10,52,21.40
2015,06,22,10,53,21.40
2015,06,22,10,54,21.40
2015,06,22,10,55,21.60
2015,06,22,10,56,21.60
2015,06,22,10,57,21.60
2015,06,22,10,58,21.60
2015,06,22,10,59,21.60
2015,06,22,11,00,21.60
2015,06,22,11,01,21.60
2015,06,22,11,02,21.60
2015,06,22,11,03,21.70
2015,06,22,11,04,21.70
2015,06,22,11,05,21.70
2015,06,22,11,06,21.70
2015,06,22,11,07,21.60
2015,06,22,11,08,21.50
2015,06,22,11,09,21.40
2015,06,22,11,10,21.30
2015,06,22,11,11,21.30
2015,06,22,11,12,21.40
2015,06,22,11,13,21.40
2015,06,22,11,14,21.40
2015,06,22,11,15,21.50
2015,06,22,11,16,21.60
2015,06,22,11,17,21.70
2015,06,22,11,18,21.60
2015,06,22,11,19,21.60
2015,06,22,11,20,21.60
2015,06,22,11,21,21.60
2015,06,22,11,22,21.60
2015,06,22,11,23,21.60
2015,06,22,11,24,21.60
2015,06,22,11,25,21.70
2015,06,22,11,26,21.70
2015,06,22,11,27,21.70
2015,06,22,11,28,21.80
2015,06,22,11,29,21.80
2015,06,22,11,30,21.70
2015,06,22,11,31,21.70
2015,06,22,11,32,21.60
2015,06,22,11,33,21.60
2015,06,22,11,34,21.60
2015,06,22,11,35,21.60
2015,06,22,11,36,21.60
2015,06,22,11,37,21.70
2015,06,22,11,38,21.80
2015,06,22,11,39,21.90
2015,06,22,11,40,22.00
2015,06,22,11,41,22.00
2015,06,22,11,42,22.00
2015,06,22,11,43,22.00
2015,06,22,11,44,21.90
2015,06,22,11,45,21.80
2015,06,22,11,46,21.70
2015,06,22,11,47,21.70
2015,06,22,11,48,21.80
2015,06,22,11,49,21.80
2015,06,22,11,50,21.90
2015,06,22,11,51,21.90
2015,06,22,11,52,22.00
2015,06,22,11,53,22.00
2015,06,22,11,54,22.00
2015,06,22,11,55,22.00
2015,06,22,11,56,22.00
2015,06,22,11,57,21.90
2015,06,22,11,58,21.90
2015,06,22,11,59,21.80
2015,06,22,12,00,21.80
2015,06,22,12,01,21.80
2015,06,22,12,02,21.80
2015,06,22,12,03,21.80
2015,06,22,12,04,21.70
2015,06,22,12,05,21.60
2015,06,22,12,06,21.60
2015,06,22,12,07,21.60
2015,06,22,12,08,21.60
2015,06,22,12,09,21.60
2015,06,22,12,10,21.70
2015,06,22,12,11,21.80
2015,06,22,12,12,21.80
2015,06,22,12,13,21.90
2015,06,22,12,14,22.00
2015,06,22,12,15,22.10
2015,06,22,12,16,22.20
2015,06,22,12,17,22.30
2015,06,22,12,18,22.40
2015,06,22,12,19,22.40
2015,06,22,12,20,22.50
2015,06,22,12,21,22.50
2015,06,22,12,22,22.40
2015,06,22,12,23,22.30
2015,06,22,12,24,22.30
2015,06,22,12,25,22.30
2015,06,22,12,26,22.30
2015,06,22,12,27,22.30
2015,06,22,12,28,22.30
2015,06,22,12,29,22.30
2015,06,22,12,30,22.30
2015,06,22,12,31,22.30
2015,06,22,12,32,22.20
2015,06,22,12,33,22.20
2015,06,22,12,34,22.20
2015,06,22,12,35,22.20
2015,06,22,12,36,22.10
2015,06,22,12,37,22.10
2015,06,22,12,38,22.00
2015,06,22,12,39,21.90
2015,06,22,12,40,21.80
2015,06,22,12,41,21.60
2015,06,22,12,42,21.50
2015,06,22,12,43,21.40
2015,06,22,12,44,21.30
2015,06,22,12,45,21.20
2015,06,22,12,46,21.10
2015,06,22,12,47,21.10
2015,06,22,12,48,21.10
2015,06,22,12,49,21.10
2015,06,22,12,50,21.10
2015,06,22,12,51,21.20
2015,06,22,12,52,21.20
2015,06,22,12,53,21.20
2015,06,22,12,54,21.30
2015,06,22,12,55,21.30
2015,06,22,12,56,21.40
2015,06,22,12,57,21.50
2015,06,22,12,58,21.60
2015,06,22,12,59,21.60
2015,06,22,13,00,21.70
2015,06,22,13,01,21.80
2015,06,22,13,02,21.90
2015,06,22,13,03,22.00
2015,06,22,13,04,22.10
2015,06,22,13,05,22.10
2015,06,22,13,06,22.20
2015,06,22,13,07,22.20
2015,06,22,13,08,22.20
2015,06,22,13,09,22.10
2015,06,22,13,10,22.00
2015,06,22,13,11,22.00
2015,06,22,13,12,22.00
2015,06,22,13,13,22.00
2015,06,22,13,14,22.00
2015,06,22,13,15,22.00
2015,06,22,13,16,22.10
2015,06,22,13,17,22.10
2015,06,22,13,18,22.10
2015,06,22,13,19,22.20
2015,06,22,13,20,22.20
2015,06,22,13,21,22.20
2015,06,22,13,22,22.20
2015,06,22,13,23,22.20
2015,06,22,13,24,22.30
2015,06,22,13,25,22.40
2015,06,22,13,26,22.40
2015,06,22,13,27,22.40
2015,06,22,13,28,22.40
2015,06,22,13,29,22.40
2015,06,22,13,30,22.50
2015,06,22,13,31,22.40
2015,06,22,13,32,22.50
2015,06,22,13,33,22.40
2015,06,22,13,34,22.30
2015,06,22,13,35,22.30
2015,06,22,13,36,22.20
2015,06,22,13,37,22.20
2015,06,22,13,38,22.10
2015,06,22,13,39,22.00
2015,06,22,13,40,22.00
2015,06,22,13,41,21.90
2015,06,22,13,42,21.90
2015,06,22,13,43,21.90
2015,06,22,13,44,21.90
2015,06,22,13,45,21.90
2015,06,22,13,46,22.00
2015,06,22,13,47,22.00
2015,06,22,13,48,22.10
2015,06,22,13,49,22.10
2015,06,22,13,50,22.10
2015,06,22,13,51,22.20
2015,06,22,13,52,22.20
2015,06,22,13,53,22.20
2015,06,22,13,54,22.30
2015,06,22,13,55,22.30
2015,06,22,13,56,22.20
2015,06,22,13,57,22.00
2015,06,22,13,58,22.00
2015,06,22,13,59,21.90
2015,06,22,14,00,21.80
2015,06,22,14,01,21.70
2015,06,22,14,02,21.80
2015,06,22,14,03,21.80
2015,06,22,14,04,21.80
2015,06,22,14,05,21.80
2015,06,22,14,06,21.80
2015,06,22,14,07,21.80
2015,06,22,14,08,21.90
2015,06,22,14,09,22.00
2015,06,22,14,10,22.00
2015,06,22,14,11,22.00
2015,06,22,14,12,22.10
2015,06,22,14,13,22.10
2015,06,22,14,14,22.10
2015,06,22,14,15,22.10
2015,06,22,14,16,22.10
2015,06,22,14,17,22.10
2015,06,22,14,18,22.10
2015,06,22,14,19,22.10
2015,06,22,14,20,22.10
2015,06,22,14,21,22.10
2015,06,22,14,22,22.10
2015,06,22,14,23,22.00
2015,06,22,14,24,22.00
2015,06,22,14,25,22.10
2015,06,22,14,26,22.10
2015,06,22,14,27,22.10
2015,06,22,14,28,22.10
2015,06,22,14,29,22.10
2015,06,22,14,30,22.10
2015,06,22,14,31,22.10
2015,06,22,14,32,22.10
2015,06,22,14,33,22.10
2015,06,22,14,34,22.10
2015,06,22,14,35,22.10
2015,06,22,14,36,22.10
2015,06,22,14,37,22.20
2015,06,22,14,38,22.20
2015,06,22,14,39,22.20
2015,06,22,14,40,22.20
2015,06,22,14,41,22.20
2015,06,22,14,42,22.20
2015,06,22,14,43,22.30
2015,06,22,14,44,22.30
2015,06,22,14,45,22.30
2015,06,22,14,46,22.30
2015,06,22,14,47,22.40
2015,06,22,14,48,22.40
2015,06,22,14,49,22.50
2015,06,22,14,50,22.50
2015,06,22,14,51,22.50
2015,06,22,14,52,22.60
2015,06,22,14,53,22.60
2015,06,22,14,54,22.60
2015,06,22,14,55,22.60
2015,06,22,14,56,22.60
2015,06,22,14,57,22.60
2015,06,22,14,58,22.60
2015,06,22,14,59,22.60
2015,06,22,15,00,22.50
2015,06,22,15,01,22.60
2015,06,22,15,02,22.60
2015,06,22,15,03,22.60
2015,06,22,15,04,22.70
2015,06,22,15,05,22.80
2015,06,22,15,06,22.80
2015,06,22,15,07,22.80
2015,06,22,15,08,22.80
2015,06,22,15,09,22.80
2015,06,22,15,10,22.80
2015,06,22,15,11,22.80
2015,06,22,15,12,22.90
2015,06,22,15,13,22.90
2015,06,22,15,14,22.90
2015,06,22,15,15,22.90
2015,06,22,15,16,23.00
2015,06,22,15,17,23.10
2015,06,22,15,18,23.20
2015,06,22,15,19,23.30
2015,06,22,15,20,23.30
2015,06,22,15,21,23.40
2015,06,22,15,22,23.40
2015,06,22,15,23,23.50
2015,06,22,15,24,23.60
2015,06,22,15,25,23.60
2015,06,22,15,26,23.70
2015,06,22,15,27,23.70
2015,06,22,15,28,23.70
2015,06,22,15,29,23.70
2015,06,22,15,30,23.70
2015,06,22,15,31,23.80
2015,06,22,15,32,23.90
2015,06,22,15,33,23.90
2015,06,22,15,34,23.90
2015,06,22,15,35,24.00
2015,06,22,15,36,24.10
2015,06,22,15,37,24.10
2015,06,22,15,38,24.10
2015,06,22,15,39,24.30
2015,06,22,15,40,24.40
2015,06,22,15,41,24.40
2015,06,22,15,42,24.40
2015,06,22,15,43,24.40
2015,06,22,15,44,24.40
2015,06,22,15,45,24.20
2015,06,22,15,46,24.10
2015,06,22,15,47,24.00
2015,06,22,15,48,23.90
2015,06,22,15,49,23.90
2015,06,22,15,50,23.90
2015,06,22,15,51,24.00
2015,06,22,15,52,24.10
2015,06,22,15,53,24.10
2015,06,22,15,54,24.10
2015,06,22,15,55,24.10
2015,06,22,15,56,24.10
2015,06,22,15,57,24.00
2015,06,22,15,58,23.90
2015,06,22,15,59,23.90
2015,06,22,16,00,23.80
2015,06,22,16,01,23.80
2015,06,22,16,02,23.70
2015,06,22,16,03,23.70
2015,06,22,16,04,23.70
2015,06,22,16,05,23.60
2015,06,22,16,06,23.60
2015,06,22,16,07,23.40
2015,06,22,16,08,23.40
2015,06,22,16,09,23.50
2015,06,22,16,10,23.60
2015,06,22,16,11,23.60
2015,06,22,16,12,23.60
2015,06,22,16,13,23.60
2015,06,22,16,14,23.60
2015,06,22,16,15,23.60
2015,06,22,16,16,23.60
2015,06,22,16,17,23.60
2015,06,22,16,18,23.50
2015,06,22,16,19,23.40
2015,06,22,16,20,23.30
2015,06,22,16,21,23.30
2015,06,22,16,22,23.30
2015,06,22,16,23,23.30
2015,06,22,16,24,23.40
2015,06,22,16,25,23.40
2015,06,22,16,26,23.40
2015,06,22,16,27,23.30
2015,06,22,16,28,23.30
2015,06,22,16,29,23.30
2015,06,22,16,30,23.30
2015,06,22,16,31,23.30
2015,06,22,16,32,23.30
2015,06,22,16,33,23.30
2015,06,22,16,34,23.30
2015,06,22,16,35,23.30
2015,06,22,16,36,23.40
2015,06,22,16,37,23.40
2015,06,22,16,38,23.50
2015,06,22,16,39,23.60
2015,06,22,16,40,23.60
2015,06,22,16,41,23.60
2015,06,22,16,42,23.60
2015,06,22,16,43,23.60
2015,06,22,16,44,23.60
2015,06,22,16,45,23.60
2015,06,22,16,46,23.50
2015,06,22,16,47,23.40
2015,06,22,16,48,23.40
2015,06,22,16,49,23.40
2015,06,22,16,50,23.40
2015,06,22,16,51,23.40
2015,06,22,16,52,23.30
2015,06,22,16,53,23.30
2015,06,22,16,54,23.30
2015,06,22,16,55,23.30
2015,06,22,16,56,23.30
2015,06,22,16,57,23.30
2015,06,22,16,58,23.30
2015,06,22,16,59,23.30
2015,06,22,17,00,23.30
2015,06,22,17,01,23.30
2015,06,22,17,02,23.40
2015,06,22,17,03,23.40
2015,06,22,17,04,23.40
2015,06,22,17,05,23.40
2015,06,22,17,06,23.40
2015,06,22,17,07,23.40
2015,06,22,17,08,23.40
2015,06,22,17,09,23.40
2015,06,22,17,10,23.40
2015,06,22,17,11,23.40
2015,06,22,17,12,23.40
2015,06,22,17,13,23.30
2015,06,22,17,14,23.30
2015,06,22,17,15,23.30
2015,06,22,17,16,23.30
2015,06,22,17,17,23.20
2015,06,22,17,18,23.10
2015,06,22,17,19,23.10